STARLINK-11650, 63312

Orbit data source: Space-Track

STARLINK-11650, 63312 is a payload satellite owned by SpaceX/Seattle (US) in LEO that was launched on Tue, 18 Mar 2025 UTC via an FALCON 9 launch vehicle from the Air Force Eastern Test Range (AFETR). Payload-class satellites include a variety of spacecraft equipped with specific instruments for various scientific and technological missions. These include communications satellites like Starlink; space stations such as the ISS; scientific satellites like the Hubble; Earth observation satellites from companies like Planet Labs, Umbra, and HawkEye 360; GPS; miniature CubeSats for education and research; and military/defense satellites.

Loading next visibility...
Identifier
63312, 2025-057F
Orbit
LEO
Last TLE update
20 hours ago
Origin
Manufacturer
SpaceX/Seattle
Mission
Operational Commercial Communications
Bus & Motor
STARLINK V2M, Unknown motor
Mass
730 kg wet, ~700 kg dry
Launch date (UTC)
2025-03-18 (4 months ago)
Launch vehicle
FALCON 9
Launch site
Air Force Eastern Test Range (AFETR)
Object type
Payload
Rocket body
Debris
Shape & HBR
Box + 2 Pan, 29 m
Radar Cross Section
36.964 m², Large (>1 m²)

Expand to show TLE details & history

TLE from 20 hours ago
0 STARLINK-11650
1 63312U 25057F   25191.55455691  .00156804  00000-0  12013-2 0  9995
2 63312  43.0009 284.2563 0002645 278.3029  81.7538 15.70863833 19120
Epoch: 2025-07-10T13:18Z
TLE epoch observation values (Epoch: 2025-07-10T13:18:33.717Z)
Latitude
-0.00004°
Longitude
155.8966°
Altitude
355.943 km
Speed
7.698 km/s
True Right ascension
18h 57m 01s
True Declination
0° 00' 00"
Sunlit
Object was in full shadow at epoch
Visualization orbit readout
Latitude
-31.96776°
Longitude
109.2464°
Altitude
362.886 km
Speed
7.693 km/s
Apparent Right ascension
12h 52m 49s
Apparent Declination
-47° 47' 49"
Sunlit
Object is in full shadow
Visualization observer readout
Local Sidereal Time
21:13:27
Azimuth
239.777° WSW
Elevation
-50.537°
Doppler factor
1
Orbital elements
Apogee altitude
360.19 km
Perigee altitude
356.627 km
Semi-major axis
6,736.545 km
Eccentricity
0.00026
Inclination
43.0009°
RAAN
284.2563°
Arg. of periapsis
278.3029°
True anomaly
Unknown
Mean anomaly
81.7538°
Eccentric anomaly
Unknown
Mean motion
3.92543 °/min
Orbital period
91.71 mins
BSTAR
0.0012013
Loading maneuver chart data...
Loading SW <> Apogee altitude chart data...
Loading historical data...
Loading historical data...
Loading historical data...
Loading historical data...
Loading historical data...
Loading historical data...
Loading historical data...

STARLINK-11650 Visibility forecast

Observer location: undefined°, undefined°

Span
Click to sort rows by Start time (UTC) header in descending order
Start Az.
Max El. time (UTC)
Max El. Az.
Max El.
End time (UTC)
End Az.
5 mins2025-07-11 09:20:50.250Z211.525° SW2025-07-11 09:23:50.250Z132.772° SE24.149°2025-07-11 09:25:50.250Z90.11° ESE
4 mins2025-07-11 10:57:50.250Z270.088° WNW2025-07-11 10:59:50.250Z38.07° NE38.267°2025-07-11 11:01:50.250Z67.92° E
4 mins2025-07-11 12:33:50.250Z297.236° NW2025-07-11 12:35:50.250Z16.12° NNE34.507°2025-07-11 12:37:50.250Z73.723° E
|